#timestamp,LO_Frequency,Hit,StdDev 
1526432415.8,286047002.2,N
1526432435.6,286047000.2,N
1526432455.4,286047000.1,N
1526432475.3,286047000.3,N
1526432495.1,286047002.7,N
1526432515.8,286047000.0,N
1526432535.7,286047000.0,N
1526432555.5,286046999.8,N
1526432575.4,286047001.6,N
1526432595.2,286047001.4,N
1526432615.1,286047002.6,N
1526432635.9,286047002.6,N
1526432655.7,286047002.4,N
1526432675.5,286047000.2,N
1526432695.4,286047000.8,N
1526432715.2,286047000.5,N
1526432735.1,286047002.8,N
1526432736.0,286047002.8,N
1526432755.8,286047002.7,N
1526432775.6,286046999.7,N
1526432795.5,286046999.9,N
1526432815.3,286047003.9,Y
1526432835.1,286047000.7,P
1526432855.9,286047002.3,P
1526432875.7,286047001.4,N
1526432895.6,286047002.3,Y
1526432915.4,286047001.1,P
1526432935.2,286047000.4,N
1526432955.1,286047000.6,N
1526432956.0,286047000.6,N
1526432975.8,286046998.8,Y
1526432995.7,286046999.6,P
1526433015.5,286046996.7,P
1526433035.3,286046996.9,N
1526433055.2,286046997.1,N
1526433075.9,286046996.5,N
1526433095.7,286046996.5,N
1526433115.6,286046997.0,N
1526433135.4,286046999.3,N
1526433155.3,286046999.3,N
1526433175.1,286046998.8,N
1526433176.0,286046998.8,N
1526433195.8,286046999.6,N
1526433215.7,286046998.6,N
1526433235.5,286047000.8,N
1526433255.3,286046999.0,N
1526433275.2,286046999.6,N
1526433295.0,286046996.6,N
1526433295.9,286046996.6,N
1526433315.8,286046996.7,N
1526433335.6,286046999.5,N
1526433355.4,286046996.8,N
1526433375.3,286046996.8,N
1526433395.1,286046997.1,N
1526433415.8,286046997.6,N
1526433435.7,286046996.8,N
1526433455.5,286046999.1,N
1526433475.4,286046998.1,N
1526433495.2,286046998.8,N
1526433515.0,286046996.5,N
1526433515.9,286046996.5,N
1526433535.8,286046996.5,N
1526433555.6,286046996.7,N
1526433575.4,286046998.9,N
1526433595.3,286047000.5,N
1526433615.1,286047000.5,N
1526433635.9,286046998.9,N
1526433655.7,286046999.4,N
1526433675.5,286046999.6,N
1526433695.4,286046997.8,N
1526433715.2,286046998.0,N
1526433735.0,286046995.0,Y
1526433736.0,286046995.0,P
1526433755.8,286046997.2,N
1526433775.6,286046999.4,N
1526433795.5,286046999.4,N
1526433815.3,286046996.8,N
1526433835.1,286046999.6,N
1526433855.9,286046998.8,N
1526433875.7,286046998.8,N
1526433895.6,286046998.6,N
1526433915.4,286047002.8,N
1526433935.2,286047001.1,N
1526433955.1,286046998.2,N
1526433956.0,286046998.2,N
1526433975.8,286046999.7,N
1526433995.6,286047000.3,N
1526434015.5,286047000.2,N
1526434035.3,286047000.8,N
1526434055.2,286047000.7,N
1526434075.9,286047000.7,N
1526434095.7,286047002.7,N
1526434115.6,286047000.1,N
1526434135.4,286046998.1,N
1526434155.2,286046998.6,N
1526434175.1,286046998.6,N
1526434176.0,286046998.6,N
1526434195.8,286046999.8,N
1526434215.7,286047001.0,N
1526434235.5,286046998.1,N
1526434255.3,286047000.4,N
1526434275.2,286047000.8,N
1526434295.0,286047002.8,N
1526434295.9,286047002.8,N
1526434315.8,286046999.7,N
1526434335.6,286047002.8,N
1526434355.4,286047004.4,N
1526434375.3,286047003.2,N
1526434395.1,286047003.7,N
1526434415.8,286047007.3,Y
1526434435.7,286047008.9,P
1526434455.5,286047008.5,N
1526434475.4,286047008.1,N
1526434495.2,286047010.0,N
1526434515.0,286047010.6,Y
1526434515.9,286047010.6,P
1526434535.8,286047004.1,N
1526434555.6,286047003.3,N
1526434575.4,286047004.3,N
1526434595.3,286047011.9,Y
1526434615.1,286047002.4,P
1526434635.9,286046999.8,N
1526434655.7,286046999.0,N
1526434675.5,286047000.5,N
1526434695.4,286046999.2,N
1526434715.2,286046997.1,N
1526434735.1,286046996.4,N
1526434736.0,286046996.4,N
1526434755.8,286046994.9,N
1526434775.6,286046993.4,N
1526434795.5,286046994.9,N
1526434815.3,286046994.9,N
1526434835.1,286046995.1,N
1526434855.9,286046994.9,N
1526434875.7,286046996.0,N
1526434895.6,286046995.8,N
1526434915.4,286046995.4,N
1526434935.2,286046995.3,N
1526434955.1,286047001.1,N
1526434956.0,286047001.1,N
1526434975.8,286046996.8,N
1526434995.6,286046996.6,N
1526435015.5,286046999.0,N
1526435035.3,286046996.6,N
1526435055.2,286046997.6,N
1526435075.9,286046996.8,N
1526435095.7,286046997.0,N
1526435115.6,286046999.6,N
1526435135.4,286046996.6,N
1526435155.2,286046997.1,N
1526435175.1,286046997.3,N
1526435176.0,286046997.3,N
1526435195.8,286046998.0,N
1526435215.7,286046996.4,N
1526435235.5,286046991.7,Y
1526435255.3,286046998.8,P
1526435275.2,286046998.9,N
1526435295.0,286046999.6,N
1526435295.9,286046999.6,N
1526435315.7,286046998.0,N
1526435335.6,286046999.5,N
1526435355.4,286046999.6,N
1526435375.3,286047001.2,N
1526435395.1,286047000.1,N
1526435396.0,286047000.1,N
1526435415.8,286046998.6,N
1526435435.7,286047001.2,N
1526435455.5,286046995.0,Y
1526435475.4,286046997.4,P
1526435495.2,286046997.3,N
1526435515.0,286046996.8,P
1526435515.9,286046996.8,Y
1526435535.8,286047001.6,P
1526435555.6,286047000.2,N
1526435575.4,286047000.8,N
1526435595.3,286046998.2,N
1526435615.1,286046997.2,N
1526435635.9,286046999.4,N
1526435655.7,286046997.4,N
1526435675.5,286046999.2,N
1526435695.4,286046999.2,N
1526435715.2,286047001.2,N
1526435735.1,286046997.0,N
1526435736.0,286046997.0,N
1526435755.8,286046999.0,N
1526435775.6,286046999.0,N
1526435795.5,286046999.1,N
1526435815.3,286046997.4,N
1526435835.1,286046999.4,N
1526435855.9,286046996.9,N
1526435875.7,286047000.4,N
1526435895.6,286047001.0,N
1526435915.4,286047000.8,N
1526435935.2,286047002.3,N
1526435955.1,286046998.1,N
1526435956.0,286046998.1,N
1526435975.8,286046996.9,N
1526435995.6,286046997.3,N
